This demonstration page uses our WeatherBlox Daily Observations layout. Learn more.

Left ArrowRight Arrow

Hourly Observations for July 4, 2021

Temp ( °F °C ) Dew Point ( °F °C ) Humidity (%) Winds ( mph kmh ) Pressure ( in mb ) Visibility ( mi km ) Precip ( " mm )
12:15 am 00:15 Clear 63 17 59 15 88 88 N N/A 29.93 1013 10 16 N/A
12:35 am 00:35 Clear 61 16 59 15 94 94 N N/A 29.93 1013 10 16 N/A
12:55 am 00:55 Clear 59 15 57 14 94 94 N N/A 29.93 1013 10 16 N/A
1:15 am 01:15 Clear 57 14 57 14 100 100 N N/A 29.92 1013 10 16 N/A
1:35 am 01:35 Clear 55 13 55 13 100 100 N N/A 29.91 1013 10 16 N/A
1:55 am 01:55 Clear 55 13 55 13 100 100 N N/A 29.91 1013 10 16 N/A
2:15 am 02:15 Clear 55 13 55 13 100 100 N N/A 29.90 1013 10 16 N/A
2:35 am 02:35 Clear 54 12 54 12 100 100 N N/A 29.90 1013 10 16 N/A
2:55 am 02:55 Clear 54 12 54 12 100 100 N N/A 29.90 1013 10 16 N/A
3:15 am 03:15 Clear 54 12 54 12 100 100 N N/A 29.90 1013 10 16 N/A
3:35 am 03:35 Clear 54 12 54 12 100 100 WNW 3 6 29.90 1013 10 16 N/A
3:55 am 03:55 Clear 54 12 54 12 100 100 N N/A 29.89 1012 10 16 N/A
4:15 am 04:15 Mostly Cloudy 52 11 52 11 100 100 N N/A 29.89 1012 10 16 N/A
4:35 am 04:35 Partly Cloudy 52 11 52 11 100 100 W 3 6 29.90 1013 10 16 N/A
4:55 am 04:55 Clear 52 11 52 11 100 100 N N/A 29.90 1013 10 16 N/A
5:15 am 05:15 Clear 52 11 52 11 100 100 N N/A 29.90 1013 10 16 N/A
5:35 am 05:35 Clear 52 11 52 11 100 100 N N/A 29.90 1013 10 16 N/A
5:55 am 05:55 Sunny 52 11 52 11 100 100 N N/A 29.91 1013 10 16 N/A
6:15 am 06:15 Partly Cloudy 52 11 52 11 100 100 N N/A 29.91 1013 10 16 N/A
6:35 am 06:35 Partly Cloudy 52 11 52 11 100 100 NW 3 6 29.91 1013 10 16 N/A
6:55 am 06:55 Partly Cloudy 52 11 52 11 100 100 N N/A 29.92 1013 10 16 N/A
7:15 am 07:15 Partly Cloudy 54 12 52 11 94 94 W 3 6 29.92 1013 10 16 N/A
7:35 am 07:35 Partly Cloudy 55 13 52 11 88 88 W 3 6 29.92 1013 10 16 N/A
7:55 am 07:55 Sunny 59 15 54 12 82 82 W 5 7 29.93 1013 10 16 N/A
8:15 am 08:15 Mostly Cloudy 61 16 54 12 77 77 WNW 3 6 29.94 1014 10 16 N/A
8:35 am 08:35 Mostly Cloudy 63 17 54 12 73 73 N N/A 29.94 1014 10 16 N/A
8:55 am 08:55 Cloudy 64 18 54 12 68 68 WNW 3 6 29.93 1014 10 16 N/A
9:15 am 09:15 Mostly Cloudy 68 20 54 12 60 60 W 5 7 29.93 1014 10 16 N/A
9:35 am 09:35 Cloudy 68 20 55 13 64 64 W 5 7 29.93 1014 10 16 N/A
9:55 am 09:55 Partly Cloudy 70 21 55 13 60 60 WNW 6 9 29.93 1014 10 16 N/A
10:15 am 10:15 Sunny 70 21 55 13 60 60 W 10 17 29.92 1013 10 16 N/A
10:35 am 10:35 Sunny 72 22 55 13 57 57 WNW 7 11 29.92 1013 10 16 N/A
10:55 am 10:55 Sunny 72 22 55 13 57 57 NW 10 17 29.92 1013 10 16 N/A
11:15 am 11:15 Partly Cloudy 73 23 55 13 53 53 WNW 7 11 29.93 1013 10 16 N/A
11:35 am 11:35 Mostly Cloudy 72 22 55 13 57 57 W 9 15 29.93 1013 10 16 N/A
11:55 am 11:55 Partly Cloudy 73 23 57 14 57 57 WNW 7 11 29.93 1013 10 16 N/A
12:15 pm 12:15 Partly Cloudy 75 24 59 15 57 57 W 9 15 29.92 1013 10 16 N/A
12:35 pm 12:35 Sunny 75 24 57 14 54 54 N N/A 29.92 1013 10 16 N/A
12:55 pm 12:55 Partly Cloudy 77 25 59 15 54 54 NW 6 9 29.91 1013 10 16 N/A
1:15 pm 13:15 Mostly Cloudy 75 24 59 15 57 57 W 8 13 29.92 1013 10 16 N/A
1:35 pm 13:35 Mostly Cloudy 77 25 61 16 57 57 WNW 12 19 29.91 1013 10 16 N/A
1:55 pm 13:55 Partly Cloudy 77 25 59 15 54 54 N N/A 29.91 1013 10 16 N/A
2:15 pm 14:15 Partly Cloudy 79 26 61 16 54 54 WSW 10 17 29.90 1013 10 16 N/A
2:35 pm 14:35 Mostly Cloudy 77 25 59 15 54 54 W 5 7 29.90 1013 10 16 N/A
2:55 pm 14:55 Mostly Cloudy 79 26 59 15 51 51 N N/A 29.90 1013 10 16 N/A
3:15 pm 15:15 Mostly Cloudy 79 26 59 15 51 51 WSW 3 6 29.90 1013 10 16 N/A
3:35 pm 15:35 Mostly Cloudy 79 26 61 16 54 54 W 9 15 29.90 1013 10 16 N/A
3:55 pm 15:55 Mostly Cloudy 79 26 61 16 54 54 W 3 6 29.90 1013 10 16 N/A
4:15 pm 16:15 Mostly Cloudy 79 26 61 16 54 54 NNW 3 6 29.90 1013 10 16 N/A
4:35 pm 16:35 Mostly Cloudy 79 26 61 16 54 54 W 8 13 29.90 1013 10 16 N/A
4:55 pm 16:55 Mostly Cloudy 79 26 61 16 54 54 WSW 8 13 29.90 1013 10 16 N/A
5:15 pm 17:15 Mostly Cloudy 79 26 61 16 54 54 WSW 5 7 29.90 1013 10 16 N/A
5:35 pm 17:35 Partly Cloudy 79 26 61 16 54 54 WSW 5 7 29.90 1013 10 16 N/A
5:55 pm 17:55 Partly Cloudy 81 27 61 16 51 51 W 7 11 29.90 1013 10 16 N/A
6:15 pm 18:15 Sunny 79 26 63 17 58 58 SW 7 11 29.90 1013 10 16 N/A
6:35 pm 18:35 Sunny 81 27 61 16 51 51 WSW 3 6 29.90 1013 10 16 N/A
6:55 pm 18:55 Sunny 79 26 61 16 54 54 SW 5 7 29.91 1013 10 16 N/A
7:15 pm 19:15 Sunny 79 26 61 16 54 54 WSW 3 6 29.92 1013 10 16 N/A
7:35 pm 19:35 Partly Cloudy 79 26 63 17 58 58 WSW 3 6 29.92 1013 10 16 N/A
7:55 pm 19:55 Mostly Cloudy 79 26 63 17 58 58 N N/A 29.92 1013 10 16 N/A
8:15 pm 20:15 Cloudy 77 25 63 17 61 61 N N/A 29.93 1014 10 16 N/A
8:35 pm 20:35 Cloudy 77 25 63 17 61 61 N N/A 29.94 1014 10 16 N/A
8:55 pm 20:55 Cloudy 77 25 63 17 61 61 N N/A 29.94 1014 10 16 N/A
9:15 pm 21:15 Cloudy 77 25 63 17 61 61 N N/A 29.94 1014 10 16 N/A
9:35 pm 21:35 Cloudy 77 25 63 17 61 61 N N/A 29.95 1014 10 16 N/A
9:55 pm 21:55 Mostly Cloudy 77 25 64 18 65 65 N N/A 29.96 1015 10 16 N/A
10:15 pm 22:15 Partly Cloudy 72 22 64 18 78 78 SW 3 6 29.97 1015 10 16 N/A
10:35 pm 22:35 Partly Cloudy 72 22 64 18 78 78 N N/A 29.97 1015 10 16 N/A
10:55 pm 22:55 Partly Cloudy 68 20 64 18 88 88 N N/A 29.98 1015 10 16 N/A
11:15 pm 23:15 Clear 70 21 64 18 83 83 N N/A 29.99 1016 10 16 N/A
11:35 pm 23:35 Clear 70 21 64 18 83 83 N N/A 29.99 1016 7 11 N/A
11:55 pm 23:55 Mostly Cloudy 68 20 64 18 88 88 W 5 7 29.99 1016 7 11 N/A

Powered by AerisWeather